Regional Weather Roundup
Issued by NWS Charleston, SC

Current Version | Previous Version | Text Only | Print | Product List | Glossary On
Versions: 1 2 3 4 5 6 7 8 9 10 11 12 13 14 15 16 17 18 19 20 21 22 23 24 25 26 27 28 29 30 31 32 33 34 35 36 37 38 39 40 41 42 43 44 45 46 47 48 49 50
000 ASUS42 KCHS 292225 RWRCHS REGIONAL WEATHER ROUNDUP NATIONAL WEATHER SERVICE CHARLESTON SC 600 PM EDT FRI AUG 29 2014 NOTE: "FAIR" INDICATES FEW OR NO CLOUDS BELOW 12,000 FEET WITH NO SIGNIFICANT WEATHER AND/OR OBSTRUCTIONS TO VISIBILITY. NOT ALL STATIONS ARE QUALITY CONTROLLED BY THE NATIONAL WEATHER SERVICE. USE DATA WITH CAUTION...ESPECIALLY DEWPOINT OBSERVATIONS. SCZ027-030-031-034>040-042>050-292300- ...SOUTH CAROLINA... CITY SKY/WX TMP DP RH WIND PRES REMARKS N CHARLESTON MOSUNNY 88 71 57 S12 30.07R HX 94 WATERFRONT PRK N/A 84 N/A N/A SE10 N/A FORT JOHNSON NOT AVBL MOUNT PLEASANT FAIR 84 75 74 SE7 30.07S HX 92 JOHNS ISLAND MOCLDY 84 77 79 E6 30.07S HX 94 PINOPOLIS N/A 90 73 58 SE6 29.98S HX 98 MONCKS CORNER N/A 86 77 74 SE6 30.06R HX 97 SUMMERVILLE CLOUDY 81 79 94 E5 30.07S BEAUFORT MCAS SUNNY 88 69 53 S5 30.06R HX 92 BEAUFORT ARPT FAIR 86 72 62 SE6 30.06S HX 92 HILTON HEAD IS SUNNY 86 72 62 SE5 30.07S HX 92 GEORGETOWN NOT AVBL WALTERBORO CLEAR 90 55 31 SE13 30.06R ORANGEBURG MOSUNNY 91 60 35 S5 30.04S HX 90 BARNWELL FAIR 93 57 29 SE5 30.05R HX 92 AIKEN FAIR 95 61 31 CALM 30.08R HX 95 MANNING FAIR 91 43 18 SE3 30.05S KINGSTREE NOT AVBL COLUMBIA MOSUNNY 95 52 23 SE12 30.04R HX 92 SUMTER SUNNY 94 61 33 E7 30.04S HX 94 FLORENCE SUNNY 92 63 38 S12 30.06R HX 93 MYRTLE BEACH MOSUNNY 84 73 70 SE12 30.09R HX 91 N MYRTLE BEACH SUNNY 84 73 69 SE9 30.08S HX 90 $$ GAZ063-065-086>088-099>101-113>116-118-119-134-136>141-150-292300- ...GEORGIA... CITY SKY/WX TMP DP RH WIND PRES REMARKS SAVANNAH ARPT MOSUNNY 90 67 46 S10 30.05R HX 93 HUNTER AAF SUNNY 87 71 58 SE9 30.04R HX 93 FORT STEWART SUNNY 90 70 51 SE12 30.03R HX 95 STATESBORO NOT AVBL SYLVANIA CLEAR 90 66 44 CALM 30.05S HX 92 CLAXTON NOT AVBL THOMSON MOSUNNY 96 65 36 SE3 30.08S HX 98 AUGUSTA-BUSH MOSUNNY 94 55 26 SE7 30.03R HX 92 AUGUSTA-DANIEL SUNNY 95 53 24 SE7 30.05R HX 92 SWAINSBORO CLOUDY 97 64 34 E6 30.03S HX 99 VIDALIA N/A 95 63 34 E6 30.02F HX 96 ALMA SUNNY 94 63 35 E5 30.01F HX 95 WAYCROSS SUNNY 94 72 47 SE9 30.02R HX 101 JESUP N/A 91 72 52 SE8 30.03S HX 98 BRUNSWICK SUNNY 88 72 58 SE12 30.06R HX 94 SAINT SIMONS MOSUNNY 85 74 69 SE12 30.05R HX 92 $$ SCZ027-028-034-036>038-045-046-048>050-GAZ119-141-292300- ...LAKE AND SUPPLEMENTAL COASTAL OBSERVATIONS... STATION/POSITION TIME TEMP WIND PRES WAVE SWELL AIR SEA DIR/SP/G HT/PER HT/PER/DIR (UTC) (F) (DEG/KT/KT) (MB) (FT/S) (FT/S/D) UPR LAKE MARION NOT AVBL WINYAH BAY 2200 83 120/ 10 1018.0S LAKE MURRAY 2100 91 160/ 6/ 8 1016.3S ACE BASIN NERRS 2200 87 140/ 3 1018.0S FORT PULASKI 2200 85 140/ 7/ 9 1018.1S SAPELO ISLAND 2100 91 130/ 7 1018.0S $$ ANZ835-935-AMZ111-154-330-350-352-354-374-450-454-472-292300- ...C-MAN AND BUOY OBSERVATIONS... STATION/POSITION TIME TEMP WIND PRES WAVE SWELL AIR SEA DIR/SP/G HT/PER HT/PER/DIR (UTC) (F) (DEG/KT/KT) (MB) (FT/S) (FT/S/D) FOLLY BEACH CMAN 2200 82 110/ 10/ 11 1018.8R BUOY 41004 2200 83 84 70/ 10/ 12 1017.9S 3/ 9 3/ 9 BUOY 41008 2200 83 85 120/ 10/ 12 1017.8R 2/ 9 2/ 90/ 9 5E ST. MARYS GA 2200 85 N/A 2/ 9 FRYING PAN BUOY NOT AVBL BUOY 41025 2200 80 310/ 2/ 2 1019.8R 3/ 8 3/ 90/ 8 CAPE LOOKOUT NC 2200 81 160/ 3/ 4 1019.7R BUOY 41002 2143 81 84 80/ 8/ 10 1020.3R 4/ 9 3/100/ 9 BUOY 41010 2200 84 84 110/ 2/ 4 1018.0R 3/ 8 3/110/ 8 BUOY 41012 NOT AVBL ST AUGUSTINE FL 2200 83 130/ 13/ 15 1018.0R CAPERS NEARSHORE 2100 82 120/ 12/ 14 N/A FRIPP NEARSHORE NOT AVBL $$

USA.gov is the U.S. government's official web portal to all federal, state and local government web resources and services.